Location: Newark
(43.6583°N, 1.6617°E)
Time: 03:13:08
(UTC+00:00)

Tiros 1 - Pass Details

Date: 28 August 2019
Orbit: 631 x 664 km, 48.4° (Epoch: 16 September)

Event Time Altitude Azimuth Distance (km) Brightness Sun altitude
Rises 22:52:37 0° 259° (W) 2,913 - -35.0°
Reaches altitude 10° 22:54:58 10° 263° (W) 2,006 - -35.1°
Maximum altitude 22:59:31 60° 344° (NNW) 723 - -35.3°
Drops below altitude 10° 23:04:07 10° 65° (ENE) 2,017 - -35.6°
Sets 23:06:29 0° 69° (ENE) 2,930 - -35.7°
